| time (UTC) | temp C | wind direction | speed KPH | gust KPH | rain 1hr cm | rain 24hr cm | rain mn cm | humidity % | barometer mb |
| 20260510024312 | 26 | 35 | 9.7 | 11.3 | 0.00 | 0.00 | 0.00 | 90 | 1011.9 |
| 20260510023809 | 26 | 33 | 3.2 | 8.0 | 0.00 | 0.00 | 0.00 | 90 | 1011.9 |
| 20260510023307 | 26 | 62 | 0.0 | 6.4 | 0.00 | 0.00 | 0.00 | 90 | 1011.5 |
| 20260510022803 | 26 | 135 | 0.0 | 6.4 | 0.00 | 0.00 | 0.00 | 90 | 1011.5 |
| 20260510022300 | 26 | 344 | 0.0 | 0.0 | 0.00 | 0.00 | 0.00 | 90 | 1011.5 |
| 20260510021757 | 26 | 115 | 0.0 | 4.8 | 0.00 | 0.00 | 0.00 | 90 | 1011.5 |
| 20260510021252 | 26 | 56 | 0.0 | 4.8 | 0.00 | 0.00 | 0.00 | 89 | 1011.2 |
| 20260510020749 | 26 | 51 | 0.0 | 6.4 | 0.00 | 0.00 | 0.00 | 89 | 1011.2 |
| 20260510020246 | 26 | 42 | 0.0 | 6.4 | 0.00 | 0.00 | 0.00 | 89 | 1010.8 |
| 20260510015723 | 26 | 5 | 0.0 | 6.4 | 0.00 | 0.00 | 0.00 | 88 | 1010.5 |
| 20260510015150 | 26 | 55 | 3.2 | 6.4 | 0.00 | 0.00 | 0.00 | 87 | 1010.2 |
| 20260510014646 | 26 | 30 | 0.0 | 1.6 | 0.00 | 0.00 | 0.00 | 86 | 1010.5 |
| 20260510014144 | 26 | 76 | 0.0 | 1.6 | 0.00 | 0.00 | 0.00 | 85 | 1010.2 |
| 20260510013640 | 26 | 329 | 0.0 | 1.6 | 0.00 | 0.00 | 0.00 | 85 | 1010.2 |
| 20260510013137 | 26 | 355 | 0.0 | 0.0 | 0.00 | 0.00 | 0.00 | 85 | 1010.2 |
| 20260510012634 | 26 | 360 | 0.0 | 0.0 | 0.00 | 0.00 | 0.00 | 85 | 1009.8 |
| 20260510012131 | 26 | 329 | 0.0 | 0.0 | 0.00 | 0.00 | 0.00 | 85 | 1009.5 |
| 20260510011628 | 26 | 329 | 0.0 | 0.0 | 0.00 | 0.00 | 0.00 | 84 | 1009.5 |
| 20260510011125 | 26 | 342 | 0.0 | 0.0 | 0.00 | 0.00 | 0.00 | 84 | 1009.5 |
| 20260510010622 | 26 | 180 | 0.0 | 0.0 | 0.00 | 0.00 | 0.00 | 84 | 1009.1 |
| 20260510010119 | 26 | 180 | 0.0 | 0.0 | 0.00 | 0.00 | 0.00 | 84 | 1008.8 |
| 20260510005617 | 26 | 180 | 0.0 | 0.0 | 0.00 | 0.00 | 0.00 | 83 | 1009.1 |
| 20260510005114 | 27 | 183 | 0.0 | 0.0 | 0.00 | 0.00 | 0.00 | 82 | 1009.1 |
| 20260510004610 | 27 | 183 | 0.0 | 0.0 | 0.00 | 0.00 | 0.00 | 81 | 1009.1 |
| 20260510004107 | 27 | 183 | 0.0 | 0.0 | 0.00 | 0.00 | 0.00 | 81 | 1009.1 |
| 20260510003514 | 27 | 275 | 0.0 | 0.0 | 0.00 | 0.00 | 0.00 | 83 | 1009.1 |
| 20260510003011 | 28 | 275 | 0.0 | 0.0 | 0.00 | 0.00 | 0.00 | 84 | 1009.1 |
| 20260510002507 | 28 | 275 | 0.0 | 0.0 | 0.00 | 0.00 | 0.00 | 83 | 1008.8 |
| 20260510002004 | 28 | 355 | 0.0 | 0.0 | 0.00 | 0.00 | 0.00 | 82 | 1008.8 |
| 20260510001501 | 28 | 360 | 0.0 | 0.0 | 0.00 | 0.00 | 0.00 | 81 | 1008.8 |
| 20260510000938 | 28 | 5 | 0.0 | 0.0 | 0.00 | 0.00 | 0.00 | 79 | 1008.8 |
| 20260510000435 | 28 | 5 | 0.0 | 0.0 | 0.00 | 0.00 | 0.00 | 78 | 1008.8 |
| 20260509235932 | 29 | 28 | 0.0 | 1.6 | 0.00 | 0.00 | 0.00 | 78 | 1008.5 |
| 20260509235428 | 30 | 19 | 0.0 | 1.6 | 0.00 | 0.00 | 0.00 | 76 | 1008.5 |
| 20260509234925 | 30 | 19 | 0.0 | 1.6 | 0.00 | 0.00 | 0.00 | 75 | 1008.5 |
| 20260509234422 | 30 | 19 | 0.0 | 3.2 | 0.00 | 0.00 | 0.00 | 76 | 1008.5 |
| 20260509233919 | 30 | 313 | 0.0 | 3.2 | 0.00 | 0.00 | 0.00 | 76 | 1008.5 |
| 20260509233416 | 30 | 313 | 0.0 | 3.2 | 0.00 | 0.00 | 0.00 | 76 | 1008.5 |
| 20260509232913 | 30 | 20 | 3.2 | 3.2 | 0.00 | 0.00 | 0.00 | 76 | 1008.5 |
| 20260509232410 | 30 | 11 | 0.0 | 3.2 | 0.00 | 0.00 | 0.00 | 77 | 1008.5 |
| 20260509231907 | 30 | 5 | 3.2 | 3.2 | 0.00 | 0.00 | 0.00 | 77 | 1008.5 |
| 20260509231403 | 30 | 11 | 0.0 | 0.0 | 0.00 | 0.00 | 0.00 | 76 | 1008.5 |
| 20260509230901 | 30 | 344 | 0.0 | 0.0 | 0.00 | 0.00 | 0.00 | 77 | 1008.5 |
| 20260509230325 | 30 | 346 | 0.0 | 0.0 | 0.00 | 0.00 | 0.00 | 78 | 1008.5 |
| 20260509225823 | 30 | 339 | 0.0 | 0.0 | 0.00 | 0.00 | 0.00 | 78 | 1008.5 |
| 20260509225319 | 31 | 241 | 0.0 | 0.0 | 0.00 | 0.00 | 0.00 | 78 | 1008.5 |
| 20260509224816 | 31 | 321 | 0.0 | 0.0 | 0.00 | 0.00 | 0.00 | 78 | 1008.1 |
| 20260509224313 | 31 | 97 | 0.0 | 0.0 | 0.00 | 0.00 | 0.00 | 78 | 1008.5 |
| 20260509223810 | 31 | 124 | 0.0 | 0.0 | 0.00 | 0.00 | 0.00 | 79 | 1008.5 |
| 20260509223306 | 31 | 49 | 0.0 | 0.0 | 0.00 | 0.00 | 0.00 | 79 | 1008.1 |
| 20260509222803 | 31 | 20 | 0.0 | 0.0 | 0.00 | 0.00 | 0.00 | 79 | 1008.1 |
| 20260509222229 | 30 | 20 | 0.0 | 0.0 | 0.00 | 0.00 | 0.00 | 80 | 1008.1 |
| 20260509221655 | 30 | 53 | 0.0 | 0.0 | 0.00 | 0.00 | 0.00 | 80 | 1008.1 |
| 20260509221120 | 30 | 360 | 0.0 | 0.0 | 0.00 | 0.00 | 0.00 | 81 | 1008.1 |
| 20260509220617 | 30 | 360 | 0.0 | 1.6 | 0.00 | 0.00 | 0.00 | 81 | 1008.1 |
| 20260509220114 | 30 | 42 | 0.0 | 1.6 | 0.00 | 0.00 | 0.00 | 81 | 1008.1 |
| 20260509215550 | 31 | 42 | 0.0 | 1.6 | 0.00 | 0.00 | 0.00 | 80 | 1008.1 |
| 20260509215047 | 31 | 42 | 0.0 | 1.6 | 0.00 | 0.00 | 0.00 | 79 | 1008.1 |
| 20260509214513 | 31 | 70 | 0.0 | 3.2 | 0.00 | 0.00 | 0.00 | 80 | 1008.1 |
| 20260509214010 | 31 | 70 | 0.0 | 3.2 | 0.00 | 0.00 | 0.00 | 80 | 1008.1 |
| 20260509213507 | 31 | 67 | 0.0 | 6.4 | 0.00 | 0.00 | 0.00 | 77 | 1008.1 |
| 20260509213005 | 31 | 24 | 3.2 | 8.0 | 0.00 | 0.00 | 0.00 | 77 | 1008.1 |
| 20260509212501 | 32 | 56 | 0.0 | 8.0 | 0.00 | 0.00 | 0.00 | 76 | 1008.1 |
| 20260509211958 | 32 | 82 | 0.0 | 9.7 | 0.00 | 0.00 | 0.00 | 77 | 1008.1 |
| 20260509211455 | 32 | 71 | 8.0 | 9.7 | 0.00 | 0.00 | 0.00 | 75 | 1008.1 |
| 20260509210935 | 32 | 53 | 3.2 | 4.8 | 0.00 | 0.00 | 0.00 | 75 | 1008.1 |
| 20260509210432 | 32 | 109 | 0.0 | 0.0 | 0.00 | 0.00 | 0.00 | 75 | 1008.1 |
| 20260509205928 | 32 | 5 | 0.0 | 0.0 | 0.00 | 0.00 | 0.00 | 73 | 1008.1 |
| 20260509205424 | 32 | 23 | 0.0 | 0.0 | 0.00 | 0.00 | 0.00 | 76 | 1008.1 |
| 20260509204902 | 32 | 77 | 0.0 | 0.0 | 0.00 | 0.00 | 0.00 | 76 | 1008.1 |
| 20260509204359 | 32 | 40 | 0.0 | 0.0 | 0.00 | 0.00 | 0.00 | 76 | 1008.1 |
| 20260509203856 | 32 | 67 | 0.0 | 0.0 | 0.00 | 0.00 | 0.00 | 77 | 1008.1 |
| 20260509203353 | 32 | 73 | 0.0 | 6.4 | 0.00 | 0.00 | 0.00 | 78 | 1008.5 |
| 20260509202850 | 32 | 74 | 0.0 | 6.4 | 0.00 | 0.00 | 0.00 | 77 | 1008.5 |
| 20260509202315 | 32 | 339 | 0.0 | 6.4 | 0.00 | 0.00 | 0.00 | 77 | 1008.5 |
| 20260509201813 | 32 | 17 | 0.0 | 1.6 | 0.00 | 0.00 | 0.00 | 76 | 1008.5 |
| 20260509201238 | 32 | 71 | 0.0 | 1.6 | 0.00 | 0.00 | 0.00 | 78 | 1008.5 |
| 20260509200735 | 32 | 291 | 0.0 | 1.6 | 0.00 | 0.00 | 0.00 | 75 | 1008.8 |
| 20260509200213 | 32 | 327 | 0.0 | 1.6 | 0.00 | 0.00 | 0.00 | 74 | 1008.8 |
| 20260509195650 | 32 | 31 | 0.0 | 0.0 | 0.00 | 0.00 | 0.00 | 74 | 1008.8 |
| 20260509195116 | 32 | 22 | 0.0 | 0.0 | 0.00 | 0.00 | 0.00 | 72 | 1008.8 |
| 20260509194613 | 32 | 292 | 0.0 | 0.0 | 0.00 | 0.00 | 0.00 | 69 | 1008.8 |
| 20260509194110 | 32 | 292 | 0.0 | 0.0 | 0.00 | 0.00 | 0.00 | 71 | 1008.8 |
| 20260509193601 | 32 | 292 | 0.0 | 0.0 | 0.00 | 0.00 | 0.00 | 71 | 1008.8 |
| 20260509193058 | 32 | 333 | 0.0 | 0.0 | 0.00 | 0.00 | 0.00 | 70 | 1008.8 |
| 20260509192555 | 32 | 336 | 0.0 | 0.0 | 0.00 | 0.00 | 0.00 | 71 | 1008.8 |
| 20260509192052 | 32 | 70 | 0.0 | 0.0 | 0.00 | 0.00 | 0.00 | 71 | 1009.1 |
| 20260509191549 | 31 | 273 | 0.0 | 0.0 | 0.00 | 0.00 | 0.00 | 72 | 1009.1 |
| 20260509191046 | 31 | 273 | 0.0 | 0.0 | 0.00 | 0.00 | 0.00 | 71 | 1009.1 |
| 20260509190543 | 31 | 245 | 0.0 | 0.0 | 0.00 | 0.00 | 0.00 | 72 | 1009.1 |
| 20260509190040 | 31 | 261 | 0.0 | 0.0 | 0.00 | 0.00 | 0.00 | 72 | 1009.1 |
| 20260509185536 | 31 | 259 | 0.0 | 0.0 | 0.00 | 0.00 | 0.00 | 73 | 1009.1 |
| 20260509185033 | 31 | 237 | 0.0 | 0.0 | 0.00 | 0.00 | 0.00 | 74 | 1009.1 |
| 20260509184530 | 31 | 257 | 0.0 | 8.0 | 0.00 | 0.00 | 0.00 | 76 | 1009.1 |
| 20260509183955 | 30 | 306 | 0.0 | 8.0 | 0.00 | 0.00 | 0.00 | 74 | 1009.1 |
| 20260509183452 | 30 | 355 | 0.0 | 8.0 | 0.00 | 0.00 | 0.00 | 76 | 1009.5 |
| 20260509182918 | 30 | 242 | 0.0 | 8.0 | 0.00 | 0.00 | 0.00 | 78 | 1009.5 |
| 20260509182414 | 30 | 252 | 0.0 | 0.0 | 0.00 | 0.00 | 0.00 | 78 | 1009.8 |
| 20260509181911 | 30 | 279 | 0.0 | 0.0 | 0.00 | 0.00 | 0.00 | 79 | 1009.8 |
| 20260509181246 | 30 | 256 | 0.0 | 1.6 | 0.00 | 0.00 | 0.00 | 81 | 1009.8 |
| 20260509180743 | 29 | 288 | 0.0 | 1.6 | 0.00 | 0.00 | 0.00 | 83 | 1010.2 |
| 20260509180221 | 28 | 240 | 0.0 | 1.6 | 0.00 | 0.00 | 0.00 | 84 | 1010.2 |
| 20260509175718 | 28 | 249 | 1.6 | 1.6 | 0.00 | 0.00 | 0.00 | 85 | 1010.5 |
| 20260509175216 | 28 | 238 | 1.6 | 1.6 | 0.00 | 0.00 | 0.00 | 85 | 1010.5 |
| 20260509174713 | 27 | 266 | 0.0 | 0.0 | 0.00 | 0.00 | 0.00 | 88 | 1010.5 |
| 20260509174210 | 27 | 257 | 0.0 | 0.0 | 0.00 | 0.00 | 0.00 | 86 | 1010.5 |
| 20260509173707 | 28 | 257 | 0.0 | 1.6 | 0.00 | 0.00 | 0.00 | 86 | 1010.5 |
| 20260509173204 | 28 | 256 | 0.0 | 3.2 | 0.00 | 0.00 | 0.00 | 87 | 1010.8 |
| 20260509172701 | 28 | 251 | 0.0 | 3.2 | 0.00 | 0.00 | 0.00 | 87 | 1010.8 |
| 20260509172158 | 27 | 263 | 0.0 | 3.2 | 0.00 | 0.00 | 0.00 | 87 | 1010.8 |
| 20260509171655 | 27 | 252 | 1.6 | 3.2 | 0.00 | 0.00 | 0.00 | 88 | 1010.8 |
| 20260509171152 | 27 | 259 | 0.0 | 0.0 | 0.00 | 0.00 | 0.00 | 89 | 1010.8 |
| 20260509170649 | 27 | 260 | 0.0 | 0.0 | 0.00 | 0.00 | 0.00 | 89 | 1010.8 |
| 20260509170146 | 27 | 260 | 0.0 | 0.0 | 0.00 | 0.00 | 0.00 | 89 | 1010.8 |
| 20260509165548 | 27 | 260 | 0.0 | 0.0 | 0.00 | 0.00 | 0.00 | 90 | 1010.8 |
| 20260509165045 | 27 | 259 | 0.0 | 0.0 | 0.00 | 0.00 | 0.00 | 90 | 1010.8 |
| 20260509164542 | 27 | 260 | 0.0 | 0.0 | 0.00 | 0.00 | 0.00 | 90 | 1010.8 |
| 20260509164039 | 27 | 259 | 0.0 | 0.0 | 0.00 | 0.00 | 0.00 | 89 | 1010.8 |
| 20260509163536 | 27 | 259 | 0.0 | 0.0 | 0.00 | 0.00 | 0.00 | 88 | 1010.8 |
| 20260509163033 | 27 | 260 | 0.0 | 0.0 | 0.00 | 0.00 | 0.00 | 89 | 1010.8 |
| 20260509162530 | 27 | 259 | 0.0 | 0.0 | 0.00 | 0.00 | 0.00 | 89 | 1010.8 |
| 20260509161953 | 27 | 260 | 0.0 | 0.0 | 0.00 | 0.00 | 0.00 | 88 | 1010.8 |
| 20260509161417 | 27 | 259 | 0.0 | 0.0 | 0.00 | 0.00 | 0.00 | 90 | 1010.8 |
| 20260509160909 | 27 | 260 | 0.0 | 0.0 | 0.00 | 0.00 | 0.00 | 90 | 1010.5 |
| 20260509160404 | 27 | 260 | 0.0 | 0.0 | 0.00 | 0.00 | 0.00 | 92 | 1010.5 |
| 20260509155901 | 26 | 260 | 0.0 | 0.0 | 0.00 | 0.00 | 0.00 | 92 | 1010.8 |
| 20260509155358 | 26 | 259 | 0.0 | 0.0 | 0.00 | 0.00 | 0.00 | 93 | 1010.8 |
| 20260509154753 | 26 | 259 | 0.0 | 0.0 | 0.00 | 0.00 | 0.00 | 93 | 1010.5 |
| 20260509154218 | 26 | 255 | 0.0 | 0.0 | 0.00 | 0.00 | 0.00 | 93 | 1010.2 |
| 20260509153715 | 25 | 254 | 0.0 | 0.0 | 0.00 | 0.00 | 0.00 | 94 | 1010.2 |
| 20260509153211 | 25 | 254 | 0.0 | 0.0 | 0.00 | 0.00 | 0.00 | 94 | 1010.2 |
| 20260509152637 | 25 | 254 | 0.0 | 0.0 | 0.00 | 0.00 | 0.00 | 94 | 1010.5 |
| 20260509152134 | 25 | 254 | 0.0 | 0.0 | 0.00 | 0.00 | 0.00 | 94 | 1010.5 |
| 20260509151631 | 25 | 254 | 0.0 | 0.0 | 0.00 | 0.00 | 0.00 | 94 | 1010.5 |
| 20260509151127 | 25 | 254 | 0.0 | 0.0 | 0.00 | 0.00 | 0.00 | 94 | 1010.2 |
| 20260509150623 | 25 | 254 | 0.0 | 0.0 | 0.00 | 0.00 | 0.00 | 94 | 1010.2 |
| 20260509150120 | 25 | 254 | 0.0 | 0.0 | 0.00 | 0.00 | 0.00 | 94 | 1010.5 |
| 20260509145556 | 25 | 254 | 0.0 | 0.0 | 0.00 | 0.00 | 0.00 | 94 | 1010.5 |
| 20260509145053 | 25 | 254 | 0.0 | 0.0 | 0.00 | 0.00 | 0.00 | 94 | 1010.5 |
| 20260509144550 | 25 | 254 | 0.0 | 0.0 | 0.00 | 0.00 | 0.00 | 94 | 1010.5 |
| 20260509144016 | 25 | 254 | 0.0 | 0.0 | 0.00 | 0.00 | 0.00 | 94 | 1010.8 |
| 20260509143512 | 25 | 254 | 0.0 | 0.0 | 0.00 | 0.00 | 0.00 | 95 | 1010.8 |
| 20260509143010 | 25 | 254 | 0.0 | 0.0 | 0.00 | 0.00 | 0.00 | 95 | 1010.8 |
| 20260509142451 | 25 | 254 | 0.0 | 0.0 | 0.00 | 0.00 | 0.00 | 95 | 1010.8 |
| 20260509141916 | 25 | 254 | 0.0 | 0.0 | 0.00 | 0.00 | 0.00 | 95 | 1010.8 |
| 20260509141412 | 25 | 254 | 0.0 | 0.0 | 0.00 | 0.00 | 0.00 | 96 | 1010.8 |
| 20260509140909 | 25 | 254 | 0.0 | 0.0 | 0.00 | 0.00 | 0.00 | 96 | 1010.8 |
| 20260509140405 | 25 | 254 | 0.0 | 0.0 | 0.00 | 0.00 | 0.00 | 96 | 1010.8 |
| 20260509135830 | 25 | 247 | 0.0 | 0.0 | 0.00 | 0.00 | 0.00 | 96 | 1010.8 |
| 20260509135255 | 25 | 246 | 0.0 | 0.0 | 0.00 | 0.00 | 0.00 | 96 | 1010.5 |
| 20260509134751 | 24 | 252 | 0.0 | 0.0 | 0.00 | 0.00 | 0.00 | 96 | 1010.2 |
| 20260509134248 | 24 | 252 | 0.0 | 0.0 | 0.00 | 0.00 | 0.00 | 96 | 1010.2 |
| 20260509133744 | 24 | 252 | 0.0 | 1.6 | 0.00 | 0.00 | 0.00 | 96 | 1010.5 |
| 20260509133241 | 24 | 252 | 0.0 | 1.6 | 0.00 | 0.00 | 0.00 | 96 | 1010.8 |
| 20260509132738 | 24 | 256 | 0.0 | 1.6 | 0.00 | 0.00 | 0.00 | 96 | 1010.8 |
| 20260509132234 | 24 | 277 | 1.6 | 1.6 | 0.00 | 0.00 | 0.00 | 96 | 1010.8 |
| 20260509131731 | 24 | 257 | 0.0 | 0.0 | 0.00 | 0.00 | 0.00 | 96 | 1010.8 |
| 20260509131137 | 24 | 246 | 0.0 | 0.0 | 0.00 | 0.00 | 0.00 | 96 | 1010.8 |
| 20260509130547 | 24 | 247 | 0.0 | 0.0 | 0.00 | 0.00 | 0.00 | 96 | 1010.5 |
| 20260509130044 | 23 | 40 | 0.0 | 0.0 | 0.00 | 0.00 | 0.00 | 96 | 1010.5 |
| 20260509125510 | 23 | 40 | 0.0 | 0.0 | 0.00 | 0.00 | 0.00 | 96 | 1010.5 |
| 20260509124936 | 23 | 40 | 0.0 | 0.0 | 0.00 | 0.00 | 0.00 | 96 | 1010.5 |
| 20260509124432 | 23 | 40 | 0.0 | 0.0 | 0.00 | 0.00 | 0.00 | 96 | 1010.5 |
| 20260509123858 | 23 | 40 | 0.0 | 0.0 | 0.00 | 0.00 | 0.00 | 96 | 1010.8 |
| 20260509123354 | 23 | 40 | 0.0 | 0.0 | 0.00 | 0.00 | 0.00 | 96 | 1010.5 |
| 20260509122820 | 23 | 40 | 0.0 | 0.0 | 0.00 | 0.00 | 0.00 | 96 | 1010.5 |
| 20260509122315 | 23 | 40 | 0.0 | 0.0 | 0.00 | 0.00 | 0.00 | 96 | 1010.5 |
| 20260509121812 | 23 | 40 | 0.0 | 0.0 | 0.00 | 0.00 | 0.00 | 96 | 1010.5 |
| 20260509121309 | 23 | 40 | 0.0 | 0.0 | 0.00 | 0.00 | 0.00 | 95 | 1010.5 |
| 20260509120805 | 23 | 40 | 0.0 | 0.0 | 0.00 | 0.00 | 0.00 | 96 | 1010.5 |
| 20260509120159 | 23 | 40 | 0.0 | 0.0 | 0.00 | 0.00 | 0.00 | 96 | 1010.5 |
| 20260509115637 | 23 | 40 | 0.0 | 0.0 | 0.00 | 0.00 | 0.00 | 96 | 1010.5 |
| 20260509115134 | 23 | 40 | 0.0 | 0.0 | 0.00 | 0.00 | 0.00 | 96 | 1010.5 |
| 20260509114631 | 23 | 40 | 0.0 | 0.0 | 0.00 | 0.00 | 0.00 | 96 | 1010.5 |
| 20260509114128 | 23 | 40 | 0.0 | 0.0 | 0.00 | 0.00 | 0.00 | 96 | 1010.5 |
| 20260509113624 | 23 | 40 | 0.0 | 0.0 | 0.00 | 0.00 | 0.00 | 96 | 1010.5 |
| 20260509113121 | 23 | 40 | 0.0 | 0.0 | 0.00 | 0.00 | 0.00 | 96 | 1010.5 |
| 20260509112618 | 23 | 40 | 0.0 | 0.0 | 0.00 | 0.00 | 0.00 | 96 | 1010.5 |
| 20260509112004 | 23 | 40 | 0.0 | 0.0 | 0.00 | 0.00 | 0.00 | 96 | 1010.5 |
| 20260509111501 | 23 | 40 | 0.0 | 0.0 | 0.00 | 0.00 | 0.00 | 96 | 1010.5 |
| 20260509110957 | 23 | 40 | 0.0 | 0.0 | 0.00 | 0.00 | 0.00 | 96 | 1010.2 |
| 20260509110423 | 23 | 40 | 0.0 | 0.0 | 0.00 | 0.00 | 0.00 | 96 | 1010.2 |
| 20260509105919 | 23 | 40 | 0.0 | 0.0 | 0.00 | 0.00 | 0.00 | 96 | 1010.2 |
| 20260509105416 | 23 | 40 | 0.0 | 0.0 | 0.00 | 0.00 | 0.00 | 96 | 1009.8 |
| 20260509104914 | 23 | 40 | 0.0 | 0.0 | 0.00 | 0.00 | 0.00 | 96 | 1009.8 |
| 20260509104410 | 23 | 40 | 0.0 | 0.0 | 0.00 | 0.00 | 0.00 | 96 | 1009.8 |
| 20260509103907 | 23 | 40 | 0.0 | 0.0 | 0.00 | 0.00 | 0.00 | 96 | 1009.8 |
| 20260509103332 | 23 | 40 | 0.0 | 0.0 | 0.00 | 0.00 | 0.00 | 96 | 1009.8 |
| 20260509102828 | 23 | 40 | 0.0 | 0.0 | 0.00 | 0.00 | 0.00 | 96 | 1010.2 |
| 20260509102325 | 23 | 40 | 0.0 | 0.0 | 0.00 | 0.00 | 0.00 | 96 | 1010.2 |
| 20260509101822 | 23 | 40 | 0.0 | 0.0 | 0.00 | 0.00 | 0.00 | 96 | 1009.8 |
| 20260509101319 | 23 | 40 | 0.0 | 0.0 | 0.00 | 0.00 | 0.00 | 95 | 1009.8 |
| 20260509100816 | 23 | 40 | 0.0 | 0.0 | 0.00 | 0.00 | 0.00 | 95 | 1010.2 |
| 20260509100312 | 23 | 40 | 0.0 | 0.0 | 0.00 | 0.00 | 0.00 | 95 | 1010.2 |
| 20260509095809 | 23 | 40 | 0.0 | 0.0 | 0.00 | 0.00 | 0.00 | 95 | 1009.8 |
| 20260509095235 | 23 | 40 | 0.0 | 0.0 | 0.00 | 0.00 | 0.00 | 95 | 1009.8 |
| 20260509094732 | 23 | 40 | 0.0 | 0.0 | 0.00 | 0.00 | 0.00 | 95 | 1009.8 |
| 20260509094228 | 23 | 40 | 0.0 | 0.0 | 0.00 | 0.00 | 0.00 | 95 | 1009.8 |
| 20260509093654 | 23 | 40 | 0.0 | 0.0 | 0.00 | 0.00 | 0.00 | 95 | 1009.8 |
| 20260509093151 | 23 | 40 | 0.0 | 0.0 | 0.00 | 0.00 | 0.00 | 95 | 1009.8 |
| 20260509092648 | 23 | 40 | 0.0 | 0.0 | 0.00 | 0.00 | 0.00 | 95 | 1009.5 |
| 20260509092124 | 23 | 40 | 0.0 | 0.0 | 0.00 | 0.00 | 0.00 | 95 | 1009.5 |
| 20260509091620 | 23 | 40 | 0.0 | 0.0 | 0.00 | 0.00 | 0.00 | 96 | 1009.5 |
| 20260509091117 | 23 | 40 | 0.0 | 0.0 | 0.00 | 0.00 | 0.00 | 96 | 1009.5 |
| 20260509090512 | 23 | 40 | 0.0 | 0.0 | 0.00 | 0.00 | 0.00 | 96 | 1009.5 |
| 20260509085947 | 22 | 40 | 0.0 | 0.0 | 0.00 | 0.00 | 0.00 | 95 | 1009.5 |
| 20260509085443 | 22 | 40 | 0.0 | 0.0 | 0.00 | 0.00 | 0.00 | 95 | 1009.1 |
| 20260509084939 | 22 | 40 | 0.0 | 0.0 | 0.00 | 0.00 | 0.00 | 95 | 1009.5 |
| 20260509084437 | 22 | 40 | 0.0 | 0.0 | 0.00 | 0.00 | 0.00 | 95 | 1009.5 |
| 20260509083933 | 22 | 40 | 0.0 | 0.0 | 0.00 | 0.00 | 0.00 | 95 | 1009.5 |
| 20260509083430 | 22 | 40 | 0.0 | 0.0 | 0.00 | 0.00 | 0.00 | 95 | 1009.5 |
| 20260509082927 | 22 | 40 | 0.0 | 0.0 | 0.00 | 0.00 | 0.00 | 95 | 1009.5 |
| 20260509082321 | 22 | 40 | 0.0 | 0.0 | 0.00 | 0.00 | 0.00 | 95 | 1009.5 |
| 20260509081818 | 22 | 40 | 0.0 | 0.0 | 0.00 | 0.00 | 0.00 | 95 | 1009.8 |
| 20260509081315 | 22 | 40 | 0.0 | 0.0 | 0.00 | 0.00 | 0.00 | 95 | 1009.8 |
| 20260509080813 | 22 | 40 | 0.0 | 0.0 | 0.00 | 0.00 | 0.00 | 95 | 1009.8 |
| 20260509080207 | 22 | 40 | 0.0 | 0.0 | 0.00 | 0.00 | 0.00 | 95 | 1009.8 |
| 20260509075645 | 23 | 40 | 0.0 | 0.0 | 0.00 | 0.00 | 0.00 | 95 | 1009.8 |
| 20260509075141 | 23 | 40 | 0.0 | 0.0 | 0.00 | 0.00 | 0.00 | 95 | 1010.2 |
| 20260509074638 | 22 | 40 | 0.0 | 0.0 | 0.00 | 0.00 | 0.00 | 95 | 1010.2 |
| 20260509074135 | 22 | 40 | 0.0 | 0.0 | 0.00 | 0.00 | 0.00 | 95 | 1010.2 |
| 20260509073632 | 22 | 40 | 0.0 | 0.0 | 0.00 | 0.00 | 0.00 | 95 | 1010.2 |
| 20260509073129 | 23 | 40 | 0.0 | 0.0 | 0.00 | 0.00 | 0.00 | 95 | 1010.2 |
| 20260509072627 | 23 | 40 | 0.0 | 0.0 | 0.00 | 0.00 | 0.00 | 95 | 1010.2 |
| 20260509072123 | 23 | 40 | 0.0 | 0.0 | 0.00 | 0.00 | 0.00 | 95 | 1010.2 |
| 20260509071621 | 23 | 40 | 0.0 | 0.0 | 0.00 | 0.00 | 0.00 | 95 | 1010.2 |
| 20260509071028 | 23 | 40 | 0.0 | 0.0 | 0.00 | 0.00 | 0.00 | 95 | 1010.2 |
| 20260509070525 | 23 | 40 | 0.0 | 0.0 | 0.00 | 0.00 | 0.00 | 95 | 1010.2 |
| 20260509070003 | 23 | 40 | 0.0 | 0.0 | 0.00 | 0.00 | 0.00 | 95 | 1010.2 |
| 20260509065429 | 23 | 40 | 0.0 | 0.0 | 0.00 | 0.00 | 0.00 | 95 | 1010.2 |
| 20260509064926 | 23 | 40 | 0.0 | 0.0 | 0.00 | 0.00 | 0.00 | 95 | 1010.2 |
| 20260509064423 | 23 | 40 | 0.0 | 0.0 | 0.00 | 0.00 | 0.00 | 95 | 1009.8 |
| 20260509063849 | 23 | 40 | 0.0 | 0.0 | 0.00 | 0.00 | 0.00 | 95 | 1010.2 |
| 20260509063346 | 23 | 40 | 0.0 | 0.0 | 0.00 | 0.00 | 0.00 | 95 | 1010.2 |
| 20260509062843 | 23 | 40 | 0.0 | 0.0 | 0.00 | 0.00 | 0.00 | 95 | 1010.2 |
| 20260509062338 | 23 | 40 | 0.0 | 0.0 | 0.00 | 0.00 | 0.00 | 95 | 1010.5 |
| 20260509061835 | 23 | 40 | 0.0 | 0.0 | 0.00 | 0.00 | 0.00 | 95 | 1010.2 |
| 20260509061332 | 23 | 40 | 0.0 | 0.0 | 0.00 | 0.00 | 0.00 | 95 | 1010.2 |
| 20260509060829 | 23 | 40 | 0.0 | 0.0 | 0.00 | 0.00 | 0.00 | 95 | 1010.2 |
| 20260509060326 | 23 | 40 | 0.0 | 0.0 | 0.00 | 0.00 | 0.00 | 95 | 1010.2 |
| 20260509055823 | 23 | 40 | 0.0 | 0.0 | 0.00 | 0.00 | 0.00 | 95 | 1010.2 |
| 20260509055320 | 23 | 40 | 0.0 | 0.0 | 0.00 | 0.00 | 0.00 | 95 | 1010.2 |
| 20260509054817 | 23 | 40 | 0.0 | 0.0 | 0.00 | 0.00 | 0.00 | 95 | 1010.2 |
| 20260509054314 | 23 | 40 | 0.0 | 0.0 | 0.00 | 0.00 | 0.00 | 95 | 1010.2 |
| 20260509053740 | 23 | 40 | 0.0 | 0.0 | 0.00 | 0.00 | 0.00 | 95 | 1010.5 |
| 20260509053205 | 23 | 40 | 0.0 | 0.0 | 0.00 | 0.00 | 0.00 | 95 | 1010.5 |
| 20260509052702 | 23 | 40 | 0.0 | 0.0 | 0.00 | 0.00 | 0.00 | 95 | 1010.5 |
| 20260509052159 | 23 | 40 | 0.0 | 0.0 | 0.00 | 0.00 | 0.00 | 95 | 1010.5 |
| 20260509051656 | 23 | 40 | 0.0 | 0.0 | 0.00 | 0.00 | 0.00 | 94 | 1010.5 |
| 20260509051134 | 23 | 40 | 0.0 | 0.0 | 0.00 | 0.00 | 0.00 | 94 | 1010.5 |
| 20260509050632 | 23 | 40 | 0.0 | 0.0 | 0.00 | 0.00 | 0.00 | 94 | 1010.5 |
| 20260509050027 | 23 | 40 | 0.0 | 0.0 | 0.00 | 0.00 | 0.00 | 94 | 1010.8 |
| 20260509045350 | 23 | 40 | 0.0 | 0.0 | 0.00 | 0.00 | 0.00 | 94 | 1010.8 |
| 20260509044846 | 23 | 40 | 0.0 | 0.0 | 0.00 | 0.00 | 0.00 | 94 | 1010.8 |
| 20260509044344 | 23 | 40 | 0.0 | 0.0 | 0.00 | 0.00 | 0.00 | 94 | 1010.8 |
| 20260509043841 | 23 | 40 | 0.0 | 0.0 | 0.00 | 0.00 | 0.00 | 94 | 1010.8 |
| 20260509043338 | 23 | 40 | 0.0 | 0.0 | 0.00 | 0.00 | 0.00 | 94 | 1010.8 |
| 20260509042835 | 23 | 40 | 0.0 | 0.0 | 0.00 | 0.00 | 0.00 | 94 | 1010.8 |
| 20260509042332 | 23 | 40 | 0.0 | 0.0 | 0.00 | 0.00 | 0.00 | 94 | 1010.8 |
| 20260509041830 | 23 | 40 | 0.0 | 0.0 | 0.00 | 0.00 | 0.00 | 94 | 1010.5 |
| 20260509041327 | 23 | 40 | 0.0 | 0.0 | 0.00 | 0.00 | 0.00 | 94 | 1010.8 |
| 20260509040823 | 23 | 40 | 0.0 | 0.0 | 0.00 | 0.00 | 0.00 | 94 | 1010.8 |
| 20260509040320 | 23 | 40 | 0.0 | 0.0 | 0.00 | 0.00 | 0.00 | 94 | 1010.8 |
| 20260509035818 | 23 | 40 | 0.0 | 0.0 | 0.00 | 0.00 | 0.00 | 94 | 1010.5 |
| 20260509035315 | 23 | 40 | 0.0 | 0.0 | 0.00 | 0.00 | 0.00 | 94 | 1010.2 |
| 20260509034811 | 23 | 40 | 0.0 | 0.0 | 0.00 | 0.00 | 0.00 | 94 | 1010.5 |
| 20260509034308 | 23 | 40 | 0.0 | 0.0 | 0.00 | 0.00 | 0.00 | 94 | 1010.2 |
| 20260509033734 | 23 | 40 | 0.0 | 0.0 | 0.00 | 0.00 | 0.00 | 94 | 1010.2 |
| 20260509033231 | 23 | 40 | 0.0 | 0.0 | 0.00 | 0.00 | 0.00 | 94 | 1010.2 |
| 20260509032728 | 23 | 40 | 0.0 | 0.0 | 0.00 | 0.00 | 0.00 | 94 | 1010.2 |
| 20260509032225 | 23 | 40 | 0.0 | 0.0 | 0.00 | 0.00 | 0.00 | 94 | 1010.2 |
| 20260509031722 | 23 | 38 | 0.0 | 0.0 | 0.00 | 0.00 | 0.00 | 94 | 1010.2 |
| 20260509031219 | 23 | 36 | 0.0 | 0.0 | 0.00 | 0.00 | 0.00 | 94 | 1010.2 |
| 20260509030716 | 23 | 28 | 0.0 | 1.6 | 0.00 | 0.00 | 0.00 | 94 | 1010.2 |
| 20260509030213 | 23 | 28 | 0.0 | 6.4 | 0.00 | 0.00 | 0.00 | 94 | 1010.2 |
| 20260509025710 | 23 | 28 | 0.0 | 6.4 | 0.00 | 0.00 | 0.00 | 94 | 1010.2 |
| 20260509025207 | 23 | 28 | 0.0 | 6.4 | 0.00 | 0.00 | 0.00 | 94 | 1010.2 |
| 20260509024704 | 23 | 36 | 1.6 | 6.4 | 0.00 | 0.00 | 0.00 | 94 | 1009.8 |